Regional Weather Roundup
Issued by NWS Upton, NY

Current Version | Previous Version | Text Only | Print | Product List | Glossary On
Versions: 1 2 3 4 5 6 7 8 9 10 11 12 13 14 15 16 17 18 19 20 21 22 23 24 25 26 27 28 29 30 31 32 33 34 35 36 37 38 39 40 41 42 43 44 45 46 47 48 49 50
000
ASUS41 KOKX 301804
RWROKX

REGIONAL WEATHER ROUNDUP
NATIONAL WEATHER SERVICE NEW YORK NY
200 PM EDT SAT APR 30 2016

NOTE: "FAIR" INDICATES FEW OR NO CLOUDS BELOW 12,000 FEET WITH NO
SIGNIFICANT WEATHER AND/OR OBSTRUCTIONS TO VISIBILITY.

NYZ071-072-176-178-NJZ106-104-301900-
NEW YORK CITY METRO AREA


CITY           SKY/WX    TMP DP  RH WIND       PRES   REMARKS
CENTRAL PARK   SUNNY     62  38  40 MISG      30.22R
LAGUARDIA APRT PTSUNNY   62  38  40 VRB6G18   30.19R
KENNEDY INTL   PTSUNNY   58  39  49 S13       30.22R
NEWARK/LIBERTY PTSUNNY   61  38  42 NE6       30.20S
BRNX BOT. GARD   N/A     61  37  41 SW8       30.21R
TETERBORO      MOSUNNY   61  37  41 S8        30.18S
$$

NYZ177-179-078>081-301900-
LONG ISLAND NEW YORK

CITY           SKY/WX    TMP DP  RH WIND       PRES   REMARKS
FARMINGDALE    SUNNY     57  44  62 S14       30.21R
ISLIP          PTSUNNY   56  39  53 S13       30.21R
SHIRLEY        SUNNY     55  39  54 SE9       30.22R
RIVERHEAD        N/A     59  41  51 S3        30.20S
WESTHAMPTON    SUNNY     53  35  50 E12       30.22S
EAST HAMPTON   FAIR      52  36  53 S10       30.21R
MONTAUK POINT    N/A     54  40  59 VRB5      30.23R
$$

NYZ052-065-067-301900-
HUDSON VALLEY

CITY           SKY/WX    TMP DP  RH WIND       PRES   REMARKS
WHITE PLAINS   MOSUNNY   60  35  39 SE8       30.19R
NEWBURGH       PTSUNNY   61  45  55 VRB6      30.18F
MONTGOMERY     PTSUNNY   62  42  47 N3        30.17F
POUGHKEEPSIE   CLOUDY    63  41  44 N6        30.17S
ALBANY         MOSUNNY   62  33  33 CALM      30.18S
$$

NJZ001-105-106-008-010-013-015-019>022-104-301900-
NEW JERSEY

CITY           SKY/WX    TMP DP  RH WIND       PRES   REMARKS
NEWARK/LIBERTY PTSUNNY   61  38  42 NE6       30.20S
TETERBORO      MOSUNNY   61  37  41 S8        30.18S
CALDWELL       CLOUDY    60  37  42 S6        30.19S
MORRISTOWN     PTSUNNY   61  41  48 CALM      30.19F
SOMERVILLE     CLOUDY    61  43  51 SE5       30.18S
SUSSEX         CLOUDY    58  41  53 SW5       30.19R
ANDOVER          N/A     58  39  49 CALM      30.18S
TRENTON        CLOUDY    58  42  55 CALM      30.20R
MILLVILLE      CLOUDY    57  42  57 VRB3      30.21S
ATLANTIC CITY  CLOUDY    56  41  57 E10       30.23R
WRIGHTSTOWN    CLOUDY    57  43  58 VRB3      30.18S
TOMS RIVER     CLOUDY    57  39  51 SE6       30.23R
BELMAR         SUNNY     56  37  49 SE10      30.23R
$$

PAZ047>061-062-071-301900-
EASTERN PENNSYLVANIA

CITY           SKY/WX    TMP DP  RH WIND       PRES   REMARKS
PHILADELPHIA   PTSUNNY   63  42  46 SE5       30.22S
ALLENTOWN      CLOUDY    58  42  55 SW9       30.20S
SCRANTON       CLOUDY    54  40  59 CALM      30.18S
$$

CTZ002-004>006-009-010-012-RIZ004-006-007-MAZ004-011-015-301900-
SOUTHERN NEW ENGLAND
 IN CT

CITY           SKY/WX    TMP DP  RH WIND       PRES   REMARKS
BRADLEY INTL   PTSUNNY   64  37  36 CALM      30.15S
HARTFORD       SUNNY     66  39  37 SE3       30.16S
DANBURY        CLOUDY    60  37  42 S3        30.18S
WTRBRY/OXFORD  PTSUNNY   63  39  42 S8        30.17S
BRIDGEPORT     SUNNY     58  40  51 S10       30.19S
MERIDEN        PTSUNNY   66  37  34 CALM      30.16S
NEW HAVEN      MOSUNNY   57  45  64 S10       30.19R
CHESTER        FAIR      59  36  41 S13       30.18R
GROTON         SUNNY     53  45  74 S10       30.21R
WILLIMANTIC    MOSUNNY   65  34  31 W5        30.15F

 IN RI

CITY           SKY/WX    TMP DP  RH WIND       PRES   REMARKS
PROVIDENCE     SUNNY     61  31  32 S14       30.17F
BLOCK ISLAND   SUNNY     50  38  63 SE14      30.22R
WESTERLY       SUNNY     53  38  56 SE10      30.21R

 IN MA

CITY           SKY/WX    TMP DP  RH WIND       PRES   REMARKS
BOSTON         MOSUNNY   54  33  45 E16       30.21
WORCESTER      SUNNY     60  35  39 NW5       30.15F
WESTFIELD      SUNNY     66  36  32 SW8       30.15S
PROVINCETOWN   SUNNY     53  33  46 E12       30.22R
NANTUCKET      SUNNY     54  33  45 E14       30.20S
$$

ANZ330-335-338-340-345-350-353-355-301900-
COASTAL MARINE OBSERVATIONS


STATION/POSITION TIME  SKY/WX   TEMP    WIND        PRES    VSBY  WAVE
                                AIR SEA DIR/SP/G                  HT/PER
                 (UTC)          (F)     (DEG/KT/KT) (MB)    (MI)  (FT/S)
NY HARB ENTRANCE 1650            50 53  160/  4/  6 1022.7          5/ 8
20S FIRE ISLAND  1650            47 49  100/  8/ 10 1022.9          6/ 8
GREAT SOUTH BAY  1715            50 57  170/ 10/ 14   N/A
23 SSW MONTAUK P 1750            46 48  130/  6/  8 1023.1          4/ 8
15 E BARNEGAT LI 1722               51                N/A           6/ 8
HUDSON CANYON    1650            47 48              1022.4          7/ 8
KINGS POINT      1700            56 54              1022.1
EXECUTION ROCKS  NOT AVBL
CENTRAL LI SOUND NOT AVBL
EASTERN LI SOUND 1700            49 49  140/ 10/ 14   N/A
ROBBINS REEF     1706            52     170/ 12/ 13 1022.0
$$


>>>>>>>>>>>>>>>>>>>>>>>>>>>> KEY <<<<<<<<<<<<<<<<<<<<<<<<<<<
>                                                          <
>     SKY/WX - SKY CONDITION/PRESENT WEATHER               <
>     TMP    - TEMPERATURE IN FAHRENHEIT                   <
>     DP     - DEWPOINT IN FAHRENHEIT                      <
>     RH     - RELATIVE HUMIDITY IN PERCENT                <
>     WIND   - DIRECTION AND SPEED IN MPH                  <
>     PRES   - MEAN SEA LEVEL PRESSURE IN INCHES OF HG     <
>     WCI    - WIND CHILL INDEX                            <
>     VSB    - VISIBILITY IN MILES                         <
>     HX     - HEAT INDEX                                  <
>     TC     - TEMPERATURE IN CELSIUS                      <
>     VRB    - VARIABLE WIND DIRECTION                     <
>                                                          <
>>>>>>>>>>>>>>>>>>>>>>>>>>>> KEY <<<<<<<<<<<<<<<<<<<<<<<<<<<






USA.gov is the U.S. government's official web portal to all federal, state and local government web resources and services.